Вернуться в каталог

ATLAS 5 CENTAUR DEB

LostHEO
NORAD 47341·DEBRIS·🇺🇸 United States

Запущен Oct 17, 2018 с Cape Canaveral Space Force Station

Loading…

Ближайшие Пролёты (ближайшие 24 часа)

TLE

УстаревшееSource: Space-Track

Эпоха: Dec 3, 2024, 08:52 UTC

1 47341U 18079EN  24338.37006657 -.00000072  00000-0  00000-0 0  9998
2 47341  11.9847  99.1226 4817952 179.1234 182.1565  1.72260358 24630

Отслеживайте ATLAS 5 CENTAUR DEB в реальном времени с AllMySat

Download on the App Store